Zurück zum Katalog

MICRO LABSAT

AktivWissenschaftSSO
NORAD 27600·PAYLOAD·🇯🇵 Japan

Gestartet Dec 14, 2002 von Tanegashima Space Center

Loading…

Nächste Überflüge (nächste 24 Stunden)

TLE

AktuellSource: Space-Track

Epoche: Sep 14, 2026, 09:00 UTC

1 27600U 02056D   26257.37567014  .00000080  00000-0  47976-4 0  9998
2 27600  98.8241 225.3427 0011522  52.2289 307.9935 14.30871608239292

Verfolge MICRO LABSAT in Echtzeit mit AllMySat

Download on the App Store